Weather History for KPCZ - September, 2013

Change the Weather History Date:

Sunday, September 22, 2013

  Actual Average Record
Temperature  
Mean Temperature 49 °F -  
Max Temperature 62 °F 64 °F 82 °F (1970)
Min Temperature 36 °F 44 °F 25 °F (1974)
Degree Days  
Heating Degree Days 16    
Moisture  
Dew Point 40 °F    
Average Humidity 72    
Maximum Humidity 94    
Minimum Humidity 41    
Precipitation  
Precipitation 0.00 in - - ()
Sea Level Pressure  
Sea Level Pressure 30.06 in    
Wind  
Wind Speed 2 mph (East)    
Max Wind Speed 8 mph    
Max Gust Speed -    
Visibility 10 miles    
Events      
Averages and records for this station are not official NWS values.
T = Trace of Precipitation, MM = Missing Value Source: NWS Daily Summary

Daily Weather History Graph

Daily Weather History Graph

Search for Another Location

Airport or City:

Trip Planner

Search our weather history database for the weather conditions in past years. The results will help you decide how hot, cold, wet, or windy it might be!

Date:

Astronomy

Sep. 22, 2013 Rise Set
Actual Time 6:43 AM CDT 6:53 PM CDT
Civil Twilight 6:14 AM CDT 7:21 PM CDT
Nautical Twilight 5:40 AM CDT 7:55 PM CDT
Astronomical Twilight 5:05 AM CDT 8:30 PM CDT
Moon 8:33 PM CDT (9/22) 10:12 AM CDT (9/22)
Length of Visible Light 13h 07m
Length of Day
12h 09m
Waning Gibbous, 88% of the Moon is Illuminated
Sep 22
Waning Gibbous
Sep 26
Last Quarter
Oct 4
New
Oct 11
First Quarter
Oct 18
Full

Hourly Weather History & Observations

Time (CDT) Temp. Windchill Dew Point Humidity Pressure Visibility Wind Dir Wind Speed Gust Speed Precip Events Conditions
12:15 AM 44.6 °F - 42.3 °F 91% 30.00 in 10.0 mi Calm Calm - N/A   Mostly Cloudy
12:35 AM 44.8 °F - 42.1 °F 90% 30.00 in 10.0 mi Calm Calm - N/A   Mostly Cloudy
12:55 AM 44.4 °F - 41.4 °F 89% 30.01 in 10.0 mi Calm Calm - N/A   Scattered Clouds
1:15 AM 42.8 °F - 40.1 °F 90% 30.01 in 10.0 mi Calm Calm - N/A   Clear
1:35 AM 42.3 °F 40.5 °F 40.1 °F 92% 30.02 in 10.0 mi North 3.5 mph - N/A   Clear
1:55 AM 41.7 °F 39.8 °F 39.6 °F 92% 30.01 in 10.0 mi North 3.5 mph - N/A   Clear
2:15 AM 41.4 °F 39.4 °F 39.4 °F 93% 30.02 in 10.0 mi North 3.5 mph - N/A   Clear
2:35 AM 41.2 °F 37.3 °F 39.2 °F 93% 30.02 in 10.0 mi North 5.8 mph - N/A   Clear
2:55 AM 41.0 °F 38.0 °F 39.2 °F 93% 30.02 in 10.0 mi North 4.6 mph - N/A   Clear
3:15 AM 39.7 °F 37.6 °F 37.9 °F 93% 30.02 in 10.0 mi North 3.5 mph - N/A   Clear
3:35 AM 39.4 °F 37.2 °F 37.4 °F 93% 30.02 in 10.0 mi North 3.5 mph - N/A   Clear
3:55 AM 39.7 °F - 37.9 °F 93% 30.03 in 10.0 mi Calm Calm - N/A   Clear
4:15 AM 39.0 °F - 37.2 °F 93% 30.03 in 10.0 mi Calm Calm - N/A   Clear
4:35 AM 39.2 °F - 37.4 °F 93% 30.04 in 10.0 mi Calm Calm - N/A   Clear
4:55 AM 38.5 °F - 36.7 °F 93% 30.04 in 10.0 mi Calm Calm - N/A   Clear
5:15 AM 37.9 °F - 36.3 °F 94% 30.04 in 10.0 mi Calm Calm - N/A   Clear
5:35 AM 37.6 °F - 35.8 °F 93% 30.04 in 10.0 mi Calm Calm - N/A   Clear
5:55 AM 36.9 °F - 35.2 °F 94% 30.05 in 10.0 mi Calm Calm - N/A   Clear
6:15 AM 37.4 °F - 35.8 °F 94% 30.05 in 10.0 mi Calm Calm - N/A   Clear
6:35 AM 37.0 °F - 35.4 °F 94% 30.06 in 10.0 mi Calm Calm - N/A   Clear
6:55 AM 36.5 °F - 34.7 °F 93% 30.07 in 10.0 mi Calm Calm - N/A   Clear
7:15 AM 36.9 °F - 35.2 °F 94% 30.07 in 10.0 mi Calm Calm - N/A   Clear
7:35 AM 38.1 °F - 36.5 °F 94% 30.07 in 10.0 mi Calm Calm - N/A   Clear
7:55 AM 39.9 °F - 38.3 °F 94% 30.08 in 10.0 mi Calm Calm - N/A   Clear
8:15 AM 41.9 °F 40.0 °F 40.1 °F 93% 30.09 in 10.0 mi North 3.5 mph - N/A   Clear
8:35 AM 43.7 °F 42.1 °F 41.9 °F 93% 30.09 in 10.0 mi North 3.5 mph - N/A   Clear
8:55 AM 45.3 °F - 41.7 °F 87% 30.09 in 10.0 mi Calm Calm - N/A   Clear
9:15 AM 48.6 °F - 41.9 °F 78% 30.10 in 10.0 mi Calm Calm - N/A   Clear
9:35 AM 51.3 °F - 41.2 °F 68% 30.10 in 10.0 mi ENE 4.6 mph - N/A   Clear
9:55 AM 52.5 °F - 38.7 °F 59% 30.11 in 10.0 mi East 3.5 mph - N/A   Clear
10:15 AM 53.6 °F - 38.7 °F 57% 30.11 in 10.0 mi ENE 5.8 mph - N/A   Clear
10:35 AM 53.8 °F - 38.1 °F 55% 30.11 in 10.0 mi ENE 4.6 mph - N/A   Clear
10:55 AM 54.1 °F - 39.4 °F 57% 30.11 in 10.0 mi NNE 3.5 mph - N/A   Clear
11:15 AM 55.9 °F - 37.9 °F 51% 30.11 in 10.0 mi East 6.9 mph - N/A   Scattered Clouds
11:35 AM 56.3 °F - 37.9 °F 50% 30.10 in 10.0 mi Calm Calm - N/A   Scattered Clouds
11:55 AM 57.0 °F - 37.6 °F 48% 30.10 in 10.0 mi Calm Calm - N/A   Scattered Clouds
12:15 PM 57.4 °F - 37.2 °F 47% 30.09 in 10.0 mi ENE 4.6 mph - N/A   Clear
12:35 PM 58.3 °F - 37.6 °F 46% 30.09 in 10.0 mi ENE 3.5 mph - N/A   Clear
12:55 PM 58.8 °F - 37.6 °F 45% 30.09 in 10.0 mi East 4.6 mph - N/A   Clear
1:15 PM 59.2 °F - 37.9 °F 45% 30.08 in 10.0 mi SSE 3.5 mph - N/A   Clear
1:35 PM 59.9 °F - 37.9 °F 44% 30.08 in 10.0 mi ESE 5.8 mph - N/A   Clear
1:55 PM 60.6 °F - 38.5 °F 44% 30.07 in 10.0 mi ESE 3.5 mph - N/A   Clear
2:15 PM 60.8 °F - 38.1 °F 43% 30.06 in 10.0 mi East 4.6 mph - N/A   Clear
2:35 PM 61.3 °F - 38.5 °F 43% 30.06 in 10.0 mi Calm Calm - N/A   Clear
2:55 PM 62.1 °F - 39.2 °F 43% 30.05 in 10.0 mi SSE 4.6 mph - N/A   Clear
3:15 PM 62.2 °F - 38.5 °F 41% 30.05 in 10.0 mi East 6.9 mph - N/A   Clear
3:35 PM 62.4 °F - 38.7 °F 41% 30.04 in 10.0 mi ESE 6.9 mph - N/A   Clear
3:55 PM 62.1 °F - 39.4 °F 43% 30.03 in 10.0 mi SE 4.6 mph - N/A   Clear
4:15 PM 62.2 °F - 39.4 °F 43% 30.03 in 10.0 mi East 4.6 mph - N/A   Clear
4:35 PM 62.2 °F - 39.7 °F 44% 30.03 in 10.0 mi East 5.8 mph - N/A   Clear
4:55 PM 62.1 °F - 39.7 °F 44% 30.03 in 10.0 mi South 5.8 mph - N/A   Clear
5:15 PM 61.9 °F - 39.7 °F 44% 30.03 in 10.0 mi ESE 5.8 mph - N/A   Clear
5:35 PM 61.2 °F - 40.3 °F 46% 30.03 in 10.0 mi East 6.9 mph - N/A   Clear
5:55 PM 60.3 °F - 39.9 °F 47% 30.03 in 10.0 mi East 6.9 mph - N/A   Clear
6:15 PM 59.2 °F - 40.6 °F 50% 30.03 in 10.0 mi ESE 8.1 mph - N/A   Clear
6:35 PM 57.4 °F - 42.1 °F 57% 30.03 in 10.0 mi SSE 5.8 mph - N/A   Clear
6:55 PM 55.4 °F - 42.6 °F 62% 30.04 in 10.0 mi SSE 4.6 mph - N/A   Clear
7:15 PM 53.4 °F - 43.7 °F 70% 30.05 in 10.0 mi East 4.6 mph - N/A   Clear
7:35 PM 52.0 °F - 43.3 °F 72% 30.05 in 10.0 mi East 5.8 mph - N/A   Clear
7:55 PM 50.9 °F - 43.3 °F 75% 30.06 in 10.0 mi East 4.6 mph - N/A   Clear
8:15 PM 50.0 °F - 43.2 °F 77% 30.07 in 10.0 mi East 4.6 mph - N/A   Clear
8:35 PM 50.0 °F - 43.3 °F 78% 30.07 in 10.0 mi East 4.6 mph - N/A   Clear
8:55 PM 48.6 °F - 42.8 °F 80% 30.08 in 10.0 mi East 4.6 mph - N/A   Clear
9:15 PM 48.2 °F - 43.2 °F 83% 30.08 in 10.0 mi East 4.6 mph - N/A   Clear
9:35 PM 47.5 °F - 42.8 °F 84% 30.08 in 10.0 mi East 4.6 mph - N/A   Clear
9:55 PM 47.3 °F - 42.8 °F 84% 30.09 in 10.0 mi East 3.5 mph - N/A   Clear
10:15 PM 47.1 °F - 42.8 °F 85% 30.09 in 10.0 mi East 4.6 mph - N/A   Clear
10:35 PM 46.6 °F - 42.1 °F 84% 30.09 in 10.0 mi East 4.6 mph - N/A   Clear
10:55 PM 46.2 °F 45.0 °F 41.9 °F 85% 30.09 in 10.0 mi East 3.5 mph - N/A   Clear
11:35 PM 45.3 °F - 41.5 °F 87% 30.09 in 10.0 mi Calm Calm - N/A   Clear
11:55 PM 44.8 °F - 41.2 °F 87% 30.09 in 10.0 mi Calm Calm - N/A   Clear